RH
6061 6035 5967 5905 5845 5755 5685 5613 5554 5478 5453 5376 5326 5282 5266 5242 5199 5137 5071 5009 4930 4870 4799 4752 4703 4623 4493 4413 4332 4304 4279 4234 4198 4162 4117 4059 4004 3976 4014 4185 4387 4585 4733 4795 4854 4932 5027 5077 5088 5109 5279 5534 5843 6129 6231 6234 6176 6176 6021 5832 5576 5294 5263 5414 5638 5925 6182 6424 6526 6515 6505 6535 6559 6645 6752 6776 6715 6632 6671 6568 6551 6820 7250 7424 7455 7437 6963 6293 5509 4820 4262 3802 3459 3195 3171 3142 3121 3066 3033 3012 2960 2953 2990
6043 6116 6116 6135 6104 6050 5977 5890 5813 5743 5653 5600 5552 5486 5475 5470 5451 5417 5371 5353 5335 5273 5230 5228 5182 5069 4917 4829 4765 4733 4707 4643 4557 4443 4385 4319 4245 4128 4059 4044 4162 4326 4483 4566 4638 4698 4848 4995 5110 5202 5265 5285 5362 5452 5737 6056 6365 6621 6640 6571 6445 6207 5860 5607 5416 5329 5543 5930 6336 6578 6768 6967 7148 7341 7499 7457 7333 7168 7201 7201 7163 7187 7348 7445 7514 7633 7132 6499 5809 5115 4599 4158 3813 3552 3466 3427 3354 3277 3221 3176 3138 3131 3157
5627 5755 5866 5945 5997 6047 6024 5977 5929 5870 5828 5791 5740 5704 5686 5677 5675 5659 5621 5620 5618 5595 5629 5664 5679 5593 5462 5390 5353 5327 5276 5186 5022 4850 4730 4618 4507 4389 4292 4253 4254 4316 4390 4434 4476 4520 4661 4835 5056 5260 5446 5582 5651 5613 5512 5571 5713 5964 6174 6512 6818 6987 6945 6780 6409 5906 5652 5651 5868 6191 6435 6645 6877 7173 7499 7723 7826 7793 7877 7818 7699 7561 7388 7314 7285 7298 7018 6647 6203 5692 5201 4747 4349 4078 3912 3751 3629 3579 3470 3335 3252 3237 3287
4943 5132 5284 5391 5501 5591 5651 5701 5706 5716 5719 5707 5704 5648 5643 5687 5726 5721 5713 5716 5726 5745 5796 5832 5838 5799 5739 5728 5741 5765 5801 5760 5648 5412 5218 5013 4795 4588 4533 4528 4553 4588 4579 4545 4529 4498 4556 4688 4901 5108 5278 5523 5729 5926 5877 5770 5675 5707 5791 5927 6084 6253 6451 6620 6634 6470 6157 6029 6066 6166 6337 6541 6757 6945 7146 7360 7607 7779 8007 8029 7970 7865 7652 7529 7489 7437 7198 6864 6507 6195 5773 5321 4932 4653 4478 4248 4037 3930 3865 3667 3455 3356 3388
4541 4672 4785 4879 4967 5049 5117 5194 5238 5276 5336 5380 5402 5390 5407 5468 5534 5584 5587 5596 5621 5637 5687 5706 5718 5712 5693 5693 5721 5755 5841 5900 5865 5725 5580 5352 5134 4887 4846 4827 4869 4858 4841 4782 4688 4522 4532 4648 4816 4979 5175 5393 5632 5910 6048 6087 6091 6121 6126 6087 6038 6065 6064 5990 5879 5739 5809 6127 6546 6943 6989 7032 7078 7216 7215 7181 7202 7409 7678 7887 7989 7963 7690 7546 7437 7328 7308 7174 6964 6683 6266 5886 5560 5297 5047 4815 4615 4383 4323 4144 3902 3664 3593
4368 4432 4504 4564 4630 4712 4800 4885 4913 4929 4937 4937 4959 4998 5023 5039 5096 5146 5153 5149 5112 5038 5063 5073 5066 5063 5083 5133 5186 5274 5412 5527 5587 5587 5510 5390 5282 5210 5206 5244 5244 5234 5118 5017 4927 4791 4732 4798 4945 5024 5188 5400 5662 5913 6109 6246 6352 6483 6426 6370 6338 6317 6259 6150 5989 5698 5673 5917 6302 6692 6882 7118 7355 7590 7552 7421 7212 7037 7221 7573 7872 7889 7726 7528 7414 7516 7544 7530 7404 7194 6740 6432 6212 5960 5658 5364 5129 4940 4777 4623 4388 4035 3894
4227 4285 4335 4393 4459 4530 4635 4773 4830 4903 4934 4972 5022 5038 4961 4908 4827 4760 4659 4540 4435 4328 4337 4382 4427 4502 4590 4698 4787 4905 5077 5259 5401 5465 5394 5306 5243 5276 5388 5423 5417 5348 5238 5162 5138 5167 5125 5141 5163 5207 5260 5429 5635 5880 6055 6174 6268 6363 6531 6789 6987 7059 6900 6735 6544 6235 5999 5840 5779 5836 6049 6340 6654 6997 7246 7480 7644 7651 7395 7256 7332 7635 7744 7719 7640 7592 7720 7783 7748 7623 7260 6964 6750 6553 6322 6000 5674 5385 5063 4807 4596 4367 4127
4146 4183 4241 4286 4338 4416 4498 4608 4704 4760 4832 4884 4945 4991 4954 4889 4799 4676 4524 4322 4162 4002 3945 3909 3920 3929 3949 3985 4096 4184 4355 4558 4800 4957 5000 5018 5071 5212 5366 5399 5363 5205 5123 5062 5073 5113 5212 5250 5272 5267 5276 5337 5473 5657 5820 5945 6049 6209 6555 6819 7063 7219 7367 7450 7434 7250 7071 6888 6702 6495 6480 6561 6717 6885 6895 6941 7110 7513 7895 7876 7699 7540 7781 7895 7920 7854 7942 7875 7834 7952 7802 7566 7288 7032 6946 6655 6272 5907 5410 4982 4665 4526 4371
4140 4146 4233 4264 4312 4331 4380 4452 4518 4601 4639 4660 4684 4713 4704 4644 4559 4456 4320 4184 4057 3947 3877 3841 3819 3817 3788 3741 3733 3740 3807 3919 4023 4152 4201 4282 4415 4589 4780 4888 4908 4854 4923 5009 5095 5173 5291 5417 5527 5543 5580 5511 5439 5423 5527 5569 5630 5738 5903 6127 6417 6730 7102 7359 7532 7650 7657 7644 7518 7195 7013 6997 7066 7192 7216 7237 7280 7370 7530 7637 7666 7604 7715 7945 8159 8255 8229 8012 7808 7839 8124 8076 7816 7456 7476 7233 6870 6402 5988 5543 5142 4885 4787
4151 4190 4244 4286 4312 4332 4348 4387 4408 4432 4451 4430 4393 4386 4362 4287 4202 4124 4035 3969 3875 3798 3750 3774 3796 3769 3675 3625 3563 3571 3550 3544 3541 3557 3546 3579 3659 3791 3932 4013 4031 4074 4197 4362 4545 4677 4838 5001 5140 5252 5326 5303 5300 5262 5391 5419 5425 5408 5551 5714 5919 6182 6445 6735 7045 7296 7479 7575 7566 7513 7288 7157 7141 7171 7259 7370 7493 7616 7624 7555 7448 7375 7373 7624 8031 8475 8473 8327 8094 7793 7905 8065 8172 8079 8027 7838 7512 7039 6680 6304 5983 5603 5368
4120 4170 4229 4276 4319 4339 4348 4353 4349 4354 4311 4232 4170 4101 4030 3950 3851 3793 3735 3677 3600 3543 3547 3576 3575 3577 3478 3447 3466 3457 3418 3357 3326 3293 3256 3259 3275 3346 3399 3432 3436 3445 3499 3613 3720 3816 3934 4038 4161 4253 4349 4432 4533 4637 4763 4844 4886 4917 5027 5198 5384 5623 5843 6055 6296 6565 6796 6976 7092 7179 7140 7088 7079 7128 7171 7249 7384 7534 7640 7692 7700 7640 7533 7551 7669 7856 8162 8223 8180 8119 7956 8027 8148 8268 8282 8243 8091 7749 7412 7146 6904 6578 6099
3966 4047 4099 4166 4223 4271 4299 4310 4270 4269 4215 4099 3993 3884 3793 3709 3596 3516 3416 3355 3287 3246 3253 3304 3334 3323 3251 3284 3314 3358 3319 3269 3227 3202 3190 3171 3181 3184 3222 3205 3189 3162 3145 3148 3196 3227 3306 3374 3421 3484 3480 3520 3568 3639 3703 3780 3905 4020 4235 4468 4682 4902 5116 5372 5662 5984 6242 6437 6635 6816 6938 6996 7020 7009 6998 7069 7227 7471 7677 7812 7866 7851 7752 7699 7691 7679 7741 7902 8097 8309 8071 8027 8009 7903 7962 8101 8215 8185 7920 7702 7511 7298 6816
3724 3796 3859 3931 3990 4087 4093 4104 4098 4096 4034 3921 3832 3701 3622 3484 3369 3231 3160 3069 3034 3020 3032 3070 3087 3070 3060 3109 3159 3180 3155 3138 3112 3095 3103 3108 3116 3126 3121 3104 3079 3024 2969 2919 2880 2877 2913 2931 2929 2936 2952 2932 2955 2990 3022 3086 3158 3185 3366 3559 3776 3990 4182 4449 4783 5183 5529 5848 6142 6462 6654 6797 6895 6998 7054 7113 7212 7360 7565 7760 7863 7884 7818 7792 7779 7770 7745 7867 8119 8496 8066 7898 7812 7698 7683 7784 7938 8101 8113 7955 7738 7551 7315
3467 3500 3555 3627 3676 3751 3767 3780 3777 3751 3743 3679 3576 3459 3379 3265 3169 3057 3014 2944 2915 2904 2912 2928 2934 2909 2887 2923 2955 2944 2940 2923 2937 2925 2949 2960 2973 2962 2984 2942 2904 2821 2755 2677 2655 2645 2663 2635 2652 2635 2636 2645 2693 2713 2766 2770 2746 2723 2815 2900 3015 3213 3347 3517 3734 4105 4574 5010 5426 5787 6177 6474 6708 6977 7225 7426 7565 7623 7718 7843 7895 7859 7756 7721 7737 7812 7854 7970 8136 8377 8170 7903 7715 7641 7713 7796 7845 7885 7930 7945 7846 7641 7559
3344 3335 3318 3343 3361 3365 3406 3411 3407 3393 3407 3354 3298 3200 3149 3095 3031 2978 2928 2886 2874 2874 2885 2866 2855 2805 2766 2769 2768 2765 2715 2717 2722 2757 2746 2765 2770 2766 2761 2716 2661 2579 2510 2438 2377 2339 2339 2328 2334 2328 2345 2358 2357 2412 2478 2500 2520 2540 2512 2490 2488 2587 2643 2716 2798 3005 3330 3696 4166 4688 5095 5501 5929 6344 6767 7148 7464 7730 7933 8043 8103 8110 7957 7789 7665 7624 7729 7819 7890 7923 7922 7830 7727 7640 7738 7805 7884 7928 7920 7893 7848 7750 7657
3411 3344 3296 3218 3164 3129 3109 3094 3113 3104 3105 3090 3064 3022 2996 2968 2938 2904 2857 2840 2834 2845 2842 2848 2814 2762 2695 2637 2601 2550 2536 2513 2521 2507 2517 2520 2520 2513 2480 2458 2411 2334 2290 2210 2160 2077 2066 2045 2039 2034 2018 1957 1957 1973 2055 2105 2129 2157 2140 2074 1991 1963 1993 2019 2045 2149 2309 2558 2879 3251 3599 4030 4524 5102 5685 6209 6641 6997 7145 7332 7573 7907 8110 8073 7874 7571 7435 7463 7545 7600 7528 7513 7523 7624 7574 7655 7786 7939 7939 7910 7870 7827 7641
3465 3467 3394 3276 3180 3059 2998 2945 2911 2880 2885 2887 2899 2880 2874 2857 2843 2790 2745 2737 2736 2768 2765 2759 2767 2695 2609 2545 2473 2431 2395 2351 2326 2309 2300 2266 2244 2216 2175 2164 2109 2059 2029 1979 1951 1929 1932 1937 1915 1866 1745 1674 1627 1638 1721 1757 1774 1824 1818 1743 1662 1590 1562 1546 1537 1541 1599 1720 1929 2188 2487 2798 3185 3641 4212 4876 5460 5923 6221 6501 6830 7231 7729 8049 8136 7901 7522 7262 7170 7230 7308 7330 7388 7412 7474 7541 7675 7982 8047 7976 7932 7960 7851
3421 3477 3442 3362 3274 3163 3102 3008 2917 2868 2818 2787 2764 2755 2768 2754 2736 2694 2669 2643 2643 2659 2666 2668 2679 2642 2551 2465 2404 2373 2318 2260 2204 2163 2130 2052 1975 1917 1879 1829 1785 1774 1760 1759 1792 1830 1849 1893 1882 1784 1624 1520 1460 1520 1548 1573 1595 1615 1643 1602 1591 1514 1445 1383 1290 1228 1208 1221 1270 1368 1516 1702 1957 2259 2657 3185 3729 4279 4866 5436 5966 6435 6993 7496 7862 7976 7767 7451 7173 7002 6985 7043 7177 7249 7340 7438 7620 7996 8201 8201 8148 8104 8060
3270 3371 3385 3366 3321 3324 3317 3287 3210 3084 2968 2871 2785 2710 2667 2647 2632 2590 2537 2533 2551 2567 2602 2621 2653 2605 2534 2437 2379 2307 2260 2199 2122 2064 1987 1910 1810 1745 1695 1659 1648 1653 1688 1743 1770 1803 1863 1896 1871 1800 1657 1564 1498 1515 1548 1575 1580 1564 1579 1577 1558 1542 1521 1427 1319 1183 1118 1062 1009 934 944 990 1096 1248 1438 1732 2092 2599 3308 4011 4723 5323 5819 6389 6935 7409 7554 7554 7423 7163 6914 6838 6861 6974 7120 7293 7520 7729 8043 8264 8373 8304 8229
3155 3251 3268 3323 3364 3435 3545 3585 3585 3472 3312 3171 3021 2852 2749 2671 2593 2532 2467 2441 2449 2487 2555 2615 2655 2654 2591 2535 2445 2362 2274 2172 2073 2007 1919 1848 1773 1724 1685 1657 1690 1730 1802 1840 1886 1913 1907 1918 1929 1904 1866 1805 1745 1663 1630 1613 1580 1563 1586 1580 1578 1606 1598 1544 1465 1349 1214 1134 1070 995 939 897 882 908 932 980 1171 1512 2095 2776 3452 4076 4462 4990 5601 6385 6862 7198 7359 7257 6987 6837 6787 6848 6989 7182 7412 7645 7825 8137 8446 8518 8423
3115 3155 3234 3291 3404 3515 3651 3746 3776 3730 3638 3535 3366 3209 3048 2901 2771 2654 2507 2438 2418 2440 2488 2540 2623 2660 2651 2629 2601 2543 2455 2335 2225 2071 1966 1887 1810 1788 1776 1779 1822 1888 1937 1988 2010 2026 2056 2045 2050 2041 2020 1987 1926 1866 1822 1734 1679 1629 1612 1656 1695 1749 1805 1789 1732 1661 1535 1409 1298 1216 1141 1136 1102 1021 838 721 674 740 1137 1691 2316 2868 3328 3812 4347 5048 5824 6461 6887 7033 6906 6793 6707 6723 6816 7013 7274 7596 7744 8046 8398 8743 8654
3125 3151 3232 3351 3458 3593 3718 3757 3772 3768 3753 3722 3641 3532 3388 3241 3097 2961 2809 2662 2566 2499 2488 2505 2521 2557 2578 2577 2629 2657 2646 2591 2497 2376 2247 2143 2060 2016 2002 2018 2075 2130 2146 2145 2164 2224 2328 2369 2346 2308 2206 2129 2041 1964 1931 1926 1892 1848 1837 1834 1878 1927 2015 2015 1982 1938 1854 1794 1712 1619 1465 1355 1293 1262 1126 924 728 556 574 827 1290 1921 2541 3032 3462 3901 4544 5285 5991 6552 6737 6703 6599 6512 6545 6656 6855 7173 7445 7752 8120 8530 8551
3156 3218 3296 3395 3541 3665 3701 3691 3698 3695 3705 3712 3688 3615 3555 3485 3432 3362 3199 3047 2890 2785 2681 2621 2571 2536 2466 2452 2463 2501 2545 2605 2618 2640 2568 2513 2466 2405 2397 2418 2465 2514 2448 2441 2502 2636 2707 2726 2715 2626 2519 2403 2282 2184 2101 2068 2065 2087 2070 2086 2110 2127 2159 2140 2118 2079 2044 2023 1957 1894 1752 1620 1527 1466 1448 1316 1082 716 527 474 671 1131 1899 2510 2944 3245 3544 3970 4573 5355 6054 6389 6450 6345 6262 6259 6318 6482 6734 7038 7416 7967 8209
3216 3366 3449 3538 3601 3670 3644 3646 3635 3660 3637 3587 3543 3479 3484 3515 3528 3557 3510 3413 3277 3151 3024 2932 2841 2704 2570 2434 2343 2293 2331 2402 2473 2555 2613 2651 2670 2702 2737 2797 2841 2865 2810 2821 2897 3026 3030 2995 2951 2868 2815 2716 2612 2496 2397 2295 2224 2190 2149 2160 2159 2187 2211 2244 2249 2210 2155 2097 2073 2007 1936 1871 1802 1693 1638 1581 1428 1102 720 521 456 521 1138 1834 2470 2842 3023 3179 3438 3877 4617 5307 5825 6052 6055 5991 5929 5900 6016 6302 6734 7272 7706
3342 3558 3671 3724 3720 3733 3667 3621 3604 3595 3542 3450 3378 3348 3377 3418 3499 3562 3580 3554 3515 3435 3352 3270 3155 3032 2848 2630 2454 2319 2258 2244 2293 2364 2457 2555 2651 2749 2867 2949 3028 3033 3055 3123 3172 3229 3179 3110 3049 2983 2947 2870 2815 2721 2602 2531 2432 2327 2259 2193 2148 2121 2129 2189 2249 2326 2287 2239 2192 2165 2099 2036 1976 1930 1848 1788 1693 1548 1065 705 474 394 553 1023 1630 2171 2527 2771 2901 3036 3438 3968 4595 5215 5601 5823 5863 5788 5828 6039 6364 6746 7237
3542 3794 3922 3954 3932 3851 3734 3623 3551 3473 3386 3305 3280 3293 3340 3394 3462 3529 3569 3571 3545 3514 3483 3388 3328 3251 3098 2908 2721 2531 2404 2324 2308 2335 2412 2496 2606 2715 2816 2964 3051 3114 3163 3198 3244 3243 3201 3124 3060 2977 2936 2920 2870 2820 2740 2679 2591 2503 2434 2379 2307 2214 2129 2123 2145 2232 2336 2382 2371 2318 2246 2191 2126 2082 1992 1888 1771 1679 1369 979 645 414 447 658 998 1441 1924 2320 2616 2780 2916 3165 3511 3983 4780 5483 6044 6374 6502 6559 6533 6461 6962
3796 4016 4145 4157 4116 3980 3804 3635 3498 3345 3230 3197 3201 3276 3379 3433 3512 3532 3530 3531 3491 3440 3385 3335 3265 3193 3138 3018 2891 2754 2633 2559 2520 2525 2558 2596 2679 2752 2834 2938 3018 3083 3143 3166 3187 3167 3089 3031 2959 2885 2835 2788 2782 2771 2754 2704 2652 2596 2577 2538 2505 2452 2381 2282 2238 2210 2267 2327 2404 2439 2384 2329 2243 2210 2131 2060 1896 1724 1463 1145 882 630 546 579 746 1052 1471 1907 2294 2547 2702 2857 3016 3194 3813 4788 5770 6509 6877 7096 7094 6722 6995
3945 4238 4310 4307 4204 4050 3849 3654 3461 3295 3153 3132 3187 3321 3466 3560 3583 3530 3492 3435 3355 3262 3191 3117 3055 2984 2932 2885 2840 2774 2752 2708 2688 2699 2721 2749 2798 2830 2885 2929 2979 3012 3046 3062 3041 3031 2970 2872 2791 2720 2681 2629 2612 2579 2579 2529 2523 2504 2503 2536 2577 2626 2661 2634 2545 2396 2333 2266 2269 2302 2368 2373 2378 2362 2309 2257 2159 2038 1797 1482 1141 840 684 680 771 965 1308 1705 2080 2377 2559 2746 2862 2930 3235 4004 4970 5918 6629 7226 7483 7254 7160
4057 4379 4473 4440 4291 4107 3899 3690 3509 3351 3234 3230 3281 3397 3542 3580 3578 3490 3374 3262 3155 3071 2993 2904 2810 2677 2571 2540 2521 2539 2548 2542 2566 2571 2599 2609 2655 2674 2710 2771 2802 2813 2824 2831 2813 2780 2676 2603 2511 2486 2447 2430 2409 2376 2354 2332 2304 2320 2309 2345 2421 2552 2676 2735 2746 2688 2589 2462 2355 2255 2241 2302 2367 2433 2449 2395 2307 2224 2071 1868 1588 1309 1056 906 860 948 1262 1654 2025 2315 2496 2684 2782 2840 2927 3387 4162 5129 5801 6540 7106 7230 7280
4129 4456 4588 4552 4414 4226 4020 3816 3666 3549 3503 3468 3490 3563 3599 3551 3480 3326 3150 3015 2974 2943 2907 2813 2651 2458 2285 2173 2138 2153 2195 2217 2233 2246 2251 2275 2271 2275 2322 2380 2412 2457 2510 2526 2517 2465 2365 2283 2223 2163 2179 2196 2246 2235 2218 2216 2199 2221 2227 2254 2271 2304 2394 2509 2624 2728 2709 2648 2529 2392 2298 2283 2346 2389 2444 2433 2389 2268 2153 2032 1890 1709 1462 1221 1007 971 1163 1462 1828 2198 2475 2627 2710 2746 2821 2993 3490 4468 5209 5870 6396 6789 7121
4236 4516 4615 4595 4497 4347 4187 4031 3912 3857 3863 3837 3798 3755 3682 3545 3343 3106 2977 2944 2987 3077 3082 2996 2828 2630 2370 2165 2015 1941 1977 2005 2038 2034 2025 2026 2011 2015 2032 2051 2085 2132 2185 2250 2288 2268 2176 2068 1992 1940 1991 2035 2095 2162 2143 2121 2088 2135 2174 2169 2163 2161 2161 2216 2337 2424 2496 2509 2465 2426 2434 2447 2440 2431 2482 2490 2496 2444 2287 2166 2049 1950 1818 1610 1346 1088 1006 1127 1411 1840 2305 2604 2729 2724 2724 2799 3093 3801 4868 5452 5796 6179 6499
4378 4501 4541 4532 4497 4409 4302 4212 4154 4128 4141 4130 4070 3905 3716 3485 3282 3102 3118 3227 3395 3595 3649 3586 3423 3177 2881 2563 2296 2077 2053 2038 2074 2073 2071 2067 2069 2060 2054 2070 2078 2095 2109 2145 2168 2162 2073 1992 1919 1879 1891 1937 1987 2059 2073 2084 2079 2068 2077 2083 2086 2136 2147 2155 2199 2288 2370 2441 2496 2534 2605 2679 2695 2670 2627 2591 2560 2499 2438 2301 2180 2088 2047 1954 1756 1434 1165 1034 1109 1393 1985 2486 2812 2866 2820 2863 3012 3343 4283 5028 5506 5641 5891
4388 4412 4393 4369 4372 4353 4359 4341 4337 4364 4391 4307 4174 3967 3743 3554 3446 3434 3614 3825 4032 4170 4207 4174 4079 3919 3659 3298 2941 2551 2365 2301 2308 2326 2311 2341 2337 2337 2327 2302 2282 2245 2238 2238 2222 2191 2106 2026 1939 1900 1892 1949 1970 2009 2064 2053 2045 2046 2068 2082 2121 2179 2201 2251 2311 2432 2487 2523 2562 2563 2604 2665 2763 2815 2782 2706 2670 2605 2514 2387 2285 2212 2215 2177 2056 1850 1501 1248 1133 1213 1690 2241 2784 3213 3199 3136 3119 3225 3753 4533 5227 5463 5650
4234 4201 4182 4196 4245 4332 4453 4511 4545 4521 4474 4371 4221 4031 3896 3823 3894 4048 4234 4356 4399 4347 4344 4316 4354 4415 4302 4056 3702 3259 2916 2712 2597 2629 2645 2667 2700 2688 2676 2633 2579 2504 2409 2373 2320 2255 2204 2113 2063 2025 2020 2044 2046 2040 2040 2034 2073 2096 2110 2149 2174 2202 2240 2317 2366 2423 2454 2449 2419 2387 2374 2454 2579 2716 2788 2793 2762 2700 2611 2552 2488 2455 2434 2388 2302 2165 1831 1537 1361 1350 1596 2000 2574 3320 3537 3493 3404 3459 3616 4196 4913 5513 5660
3998 3986 4050 4156 4266 4433 4598 4715 4726 4651 4510 4401 4276 4205 4221 4313 4455 4613 4620 4550 4464 4344 4321 4343 4388 4477 4530 4451 4240 3883 3495 3174 2952 2876 2893 2924 2943 2957 2909 2863 2791 2670 2570 2455 2365 2308 2243 2225 2196 2180 2165 2162 2163 2141 2104 2104 2093 2110 2160 2174 2232 2271 2293 2282 2262 2229 2223 2212 2179 2177 2217 2284 2404 2582 2734 2802 2841 2821 2768 2737 2705 2707 2683 2628 2562 2424 2120 1805 1617 1623 1737 1965 2387 3145 3743 3835 3784 3804 3906 4213 4745 5479 5654
3854 3915 4032 4207 4398 4585 4759 4882 4874 4769 4609 4498 4451 4515 4667 4801 4823 4754 4649 4561 4482 4400 4340 4322 4355 4438 4441 4409 4267 4035 3718 3411 3177 3032 2984 2984 2990 2998 2972 2940 2867 2749 2610 2451 2346 2269 2240 2258 2271 2284 2260 2268 2237 2220 2184 2150 2130 2152 2185 2210 2238 2272 2239 2162 2084 2084 2070 2053 2048 2076 2118 2207 2325 2476 2640 2768 2857 2932 2976 2968 2985 2945 2893 2877 2838 2724 2396 2069 1883 1957 2023 2102 2388 3058 3846 4238 4300 4212 4257 4362 4634 5155 5494
3838 3966 4116 4308 4523 4701 4884 4960 4984 4902 4769 4691 4685 4739 4849 4858 4748 4644 4588 4547 4499 4410 4350 4309 4288 4310 4314 4277 4187 4006 3772 3545 3371 3215 3106 3034 2977 2931 2917 2893 2857 2759 2609 2457 2329 2237 2232 2225 2263 2287 2287 2262 2239 2202 2174 2160 2149 2184 2200 2211 2234 2223 2140 2074 2002 1980 1936 1916 1911 1943 1985 2061 2151 2250 2430 2607 2749 2916 3055 3216 3289 3307 3184 3090 3000 2924 2621 2315 2105 2157 2244 2255 2490 3092 4073 4666 4877 4674 4491 4446 4562 4870 5351
4018 4171 4324 4494 4690 4851 4989 5061 5072 5020 4896 4802 4716 4682 4682 4674 4640 4561 4545 4545 4508 4457 4405 4343 4305 4327 4355 4355 4315 4245 4090 3944 3810 3666 3430 3218 3027 2871 2846 2816 2795 2741 2647 2490 2370 2257 2226 2217 2235 2230 2227 2201 2190 2173 2151 2148 2152 2180 2215 2226 2242 2195 2129 2063 1975 1893 1799 1757 1785 1817 1866 1925 1995 2064 2203 2398 2598 2834 3088 3329 3548 3665 3465 3274 3100 2934 2730 2457 2259 2202 2350 2419 2630 3238 4376 4994 5188 4972 4673 4511 4544 4812 5230
4361 4469 4611 4754 4899 5031 5165 5241 5218 5146 4949 4746 4541 4399 4393 4401 4402 4382 4428 4449 4488 4494 4471 4445 4391 4382 4416 4454 4488 4573 4570 4585 4529 4420 4098 3682 3289 3002 2889 2830 2795 2747 2670 2529 2400 2260 2210 2181 2172 2166 2152 2140 2151 2134 2140 2142 2153 2186 2224 2254 2276 2242 2190 2113 2025 1865 1744 1702 1691 1751 1759 1795 1812 1852 1988 2170 2370 2635 2978 3328 3633 3830 3760 3563 3306 3030 2823 2602 2382 2259 2402 2523 2820 3443 4620 5150 5224 5128 4896 4739 4732 4945 5235
4734 4841 4946 5068 5184 5291 5402 5401 5330 5164 4868 4576 4343 4198 4166 4188 4205 4247 4322 4444 4563 4631 4638 4576 4510 4450 4466 4476 4541 4607 4738 4844 4894 4900 4673 4246 3720 3277 3042 2912 2805 2746 2649 2520 2374 2238 2177 2132 2112 2091 2080 2074 2104 2103 2130 2130 2152 2191 2240 2268 2306 2320 2264 2209 2107 1986 1837 1719 1658 1658 1674 1671 1671 1682 1787 1941 2160 2459 2826 3200 3584 3954 4077 3998 3742 3370 3096 2837 2591 2410 2528 2646 2957 3613 4743 5226 5307 5193 5086 5032 5050 5116 5263
5057 5138 5255 5399 5510 5605 5577 5479 5285 5034 4717 4405 4163 4027 4016 4050 4139 4240 4407 4597 4772 4904 4872 4827 4741 4633 4565 4497 4455 4427 4572 4756 4926 5000 4941 4605 4151 3623 3305 3073 2907 2813 2665 2515 2359 2230 2165 2100 2077 2045 2058 2049 2070 2089 2105 2116 2149 2204 2237 2273 2317 2339 2317 2292 2237 2121 1964 1832 1741 1642 1631 1647 1657 1677 1715 1843 2046 2350 2752 3162 3584 4054 4379 4462 4302 3879 3495 3170 2880 2626 2622 2714 3012 3596 4709 5257 5428 5385 5225 5234 5323 5359 5417
5264 5368 5520 5615 5691 5699 5541 5333 5060 4796 4484 4242 4037 3941 4016 4120 4288 4449 4680 4903 5088 5228 5223 5138 5035 4890 4718 4574 4423 4281 4285 4461 4736 4924 4915 4718 4382 3974 3606 3346 3139 2961 2785 2596 2429 2270 2199 2141 2090 2077 2073 2063 2087 2105 2121 2149 2171 2209 2243 2295 2351 2378 2420 2416 2356 2224 2088 1970 1865 1755 1723 1729 1805 1811 1806 1900 2066 2356 2773 3206 3652 4115 4478 4718 4719 4479 4058 3654 3269 2904 2746 2755 2949 3380 4504 5177 5548 5713 5532 5554 5650 5659 5768
5391 5499 5595 5634 5621 5547 5307 5034 4758 4501 4311 4196 4171 4224 4361 4505 4663 4818 4977 5207 5409 5530 5495 5397 5288 5105 4877 4659 4457 4279 4180 4304 4542 4761 4809 4716 4511 4198 3916 3642 3416 3201 2978 2763 2576 2414 2311 2222 2161 2134 2154 2168 2195 2213 2215 2220 2220 2209 2248 2298 2373 2430 2535 2563 2518 2395 2221 2113 2041 1976 1943 1949 1985 1972 1952 2001 2159 2413 2802 3244 3657 4057 4399 4702 4926 5015 4691 4244 3774 3323 3041 2922 2948 3097 4061 4863 5420 5760 5935 6088 6182 6087 6362
5359 5439 5499 5501 5434 5294 5037 4820 4630 4491 4480 4554 4682 4852 4968 5060 5113 5207 5352 5508 5625 5674 5627 5536 5373 5165 4938 4709 4501 4330 4232 4315 4454 4643 4650 4634 4529 4311 4069 3821 3561 3346 3154 2927 2757 2585 2462 2377 2301 2278 2314 2345 2371 2387 2372 2341 2309 2281 2320 2374 2460 2524 2612 2678 2695 2606 2482 2346 2250 2190 2151 2130 2100 2056 2037 2077 2194 2440 2835 3257 3679 4016 4280 4589 4876 5124 4984 4647 4193 3738 3452 3243 3055 2907 3525 4324 5055 5462 5952 6299 6516 6627 6911
5229 5306 5396 5383 5296 5133 4985 4871 4861 4888 5018 5173 5307 5401 5412 5456 5491 5541 5579 5608 5615 5580 5543 5420 5274 5096 4878 4666 4479 4334 4268 4315 4374 4448 4426 4438 4399 4295 4075 3849 3589 3357 3192 3032 2905 2792 2676 2610 2555 2540 2573 2607 2605 2629 2598 2559 2517 2473 2501 2572 2665 2712 2724 2771 2820 2817 2720 2604 2491 2415 2348 2263 2190 2108 2096 2100 2236 2509 2981 3443 3843 4161 4402 4601 4781 4978 5081 4916 4554 4111 3845 3515 3163 2791 3062 3714 4463 5030 5811 6341 6738 7077 7152
5141 5296 5374 5372 5313 5212 5207 5226 5317 5444 5584 5682 5728 5712 5658 5599 5548 5496 5376 5255 5146 5052 5034 5047 5004 4880 4693 4506 4345 4203 4160 4149 4171 4196 4152 4147 4170 4161 3983 3748 3518 3327 3201 3116 3064 3012 2956 2904 2885 2879 2906 2915 2943 2953 2913 2893 2841 2802 2813 2862 2923 2918 2901 2943 2976 2978 2892 2799 2733 2662 2551 2392 2213 2140 2162 2229 2391 2765 3339 3865 4321 4687 4873 4993 5051 5120 5287 5255 5008 4477 4103 3684 3223 2763 2808 3210 3828 4454 5478 6363 7006 7373 7238
5217 5433 5497 5526 5534 5560 5672 5732 5780 5800 5830 5823 5790 5718 5627 5495 5334 5145 4951 4755 4567 4420 4367 4432 4539 4584 4441 4319 4169 4053 4034 4020 4016 3990 3962 4005 4027 3999 3809 3594 3416 3320 3293 3273 3279 3291 3294 3284 3297 3313 3326 3351 3355 3370 3352 3310 3263 3263 3243 3243 3227 3194 3186 3159 3123 3056 2985 2913 2843 2765 2640 2468 2353 2288 2343 2481 2717 3162 3823 4432 4930 5278 5460 5534 5563 5562 5688 5709 5529 5002 4349 3775 3255 2764 2660 2872 3322 3876 4861 5918 6800 7338 7222
5526 5740 5840 5920 5985 6107 6142 6104 5992 5835 5651 5502 5381 5332 5284 5177 5056 4906 4801 4694 4615 4530 4384 4327 4380 4457 4370 4254 4143 4062 4073 4058 4049 4043 4037 4083 4041 3886 3667 3516 3438 3450 3505 3543 3558 3620 3683 3710 3743 3751 3801 3840 3893 3891 3852 3799 3752 3724 3655 3600 3556 3523 3446 3364 3226 3094 3003 2924 2843 2732 2653 2557 2525 2563 2678 2854 3148 3668 4327 4910 5430 5800 5990 6073 6084 6046 6128 6099 5942 5579 4796 4024 3313 2785 2589 2684 3015 3488 4320 5400 6405 7070 7002
5879 6088 6221 6282 6324 6365 6308 6141 5923 5685 5498 5246 5029 4849 4788 4770 4746 4743 4780 4824 4882 4868 4767 4694 4662 4634 4581 4459 4390 4333 4365 4373 4408 4418 4373 4292 4141 3852 3666 3618 3657 3737 3814 3894 3952 4026 4112 4154 4196 4246 4321 4380 4392 4377 4291 4203 4154 4079 3980 3920 3821 3722 3571 3411 3259 3063 2990 2891 2826 2767 2743 2768 2832 2914 3046 3252 3595 4209 4885 5463 5928 6221 6311 6288 6249 6272 6398 6351 6155 5832 5179 4334 3506 2877 2638 2721 2954 3344 4049 5120 6215 7002 6926
6144 6344 6433 6422 6398 6271 6106 5938 5798 5679 5550 5360 5117 4839 4609 4533 4540 4612 4757 4843 4894 4831 4756 4678 4630 4622 4640 4623 4641 4718 4812 4882 4903 4876 4750 4526 4265 4017 3959 3990 4080 4177 4269 4341 4420 4515 4571 4605 4623 4693 4730 4778 4752 4695 4601 4519 4464 4409 4288 4173 4043 3840 3622 3415 3208 3023 2902 2820 2814 2835 2904 2967 3062 3166 3310 3627 4155 4836 5511 6049 6399 6552 6501 6363 6205 6216 6406 6409 6220 5927 5411 4671 3863 3167 2880 2917 3134 3470 4327 5546 6738 7516 7406
6265 6423 6423 6324 6154 5967 5843 5793 5779 5786 5723 5552 5310 4973 4693 4578 4568 4637 4703 4702 4599 4374 4097 3908 3829 3938 4099 4225 4396 4687 4981 5125 5174 5140 4954 4739 4561 4424 4454 4538 4623 4668 4752 4837 4872 4909 4939 4941 4931 4921 4926 4914 4845 4796 4761 4737 4699 4674 4562 4413 4212 3956 3644 3357 3130 2925 2798 2800 2865 2990 3076 3123 3216 3337 3691 4245 4927 5649 6215 6568 6749 6761 6655 6417 6210 6143 6392 6502 6426 6107 5645 4967 4250 3550 3274 3305 3548 3957 5463 6974 8138 8588 8136
6246 6242 6120 5975 5846 5759 5755 5784 5810 5860 5748 5557 5253 4912 4716 4616 4563 4541 4577 4588 4483 4204 3781 3492 3372 3461 3677 3897 4198 4543 4943 5201 5326 5259 5219 5110 4998 4927 4974 5061 5130 5182 5220 5252 5229 5164 5113 5071 4995 4931 4878 4817 4762 4719 4734 4732 4769 4772 4717 4577 4337 3982 3587 3229 2968 2799 2776 2843 2993 3145 3218 3288 3452 3759 4402 5079 5747 6323 6712 6940 7012 6918 6748 6509 6332 6266 6594 6809 6807 6473 5890 5218 4556 3974 3805 3794 4162 5076 6951 8075 8618 8725 8345
6018 5825 5626 5546 5613 5754 5795 5754 5702 5657 5523 5330 5115 4873 4746 4646 4535 4460 4495 4571 4596 4586 4342 4168 4129 4192 4214 4290 4466 4798 5169 5451 5591 5597 5500 5426 5339 5282 5327 5418 5455 5468 5484 5420 5335 5231 5097 4980 4854 4732 4694 4611 4545 4516 4509 4557 4604 4712 4757 4630 4349 3935 3451 3107 2842 2693 2805 2952 3140 3342 3487 3703 4076 4634 5241 5815 6334 6784 7050 7173 7171 7081 6872 6722 6720 6912 7304 7465 7351 6856 6104 5465 4994 4671 4445 4402 4929 6413 7687 8363 8649 8738 8533
5664 5409 5312 5399 5610 5829 5815 5641 5446 5343 5324 5191 5040 4869 4702 4582 4395 4171 4116 4235 4399 4520 4465 4440 4424 4395 4395 4541 4782 5155 5410 5576 5630 5618 5504 5382 5288 5292 5359 5373 5390 5397 5352 5243 5117 4971 4790 4631 4473 4398 4334 4290 4257 4261 4276 4318 4415 4551 4636 4517 4235 3796 3330 2980 2780 2736 2874 3087 3349 3666 4006 4459 4961 5484 5912 6365 6815 7215 7334 7348 7271 7143 7083 7191 7449 7859 8172 8109 7676 6877 6151 5790 5580 5291 4948 5096 5842 7299 8102 8520 8687 8755 8733
5454 5305 5329 5477 5628 5732 5674 5477 5304 5255 5115 4963 4804 4640 4368 4110 3857 3571 3550 3639 3781 3886 4173 4291 4292 4244 4348 4555 4802 5005 5102 5157 5160 5134 5051 4981 4934 4922 4945 4943 4952 4906 4838 4735 4612 4447 4266 4126 4042 3984 3989 4011 4041 4080 4159 4201 4293 4403 4435 4305 4030 3609 3223 2957 2809 2824 3004 3291 3690 4217 4746 5271 5729 6045 6482 6949 7340 7604 7573 7488 7426 7405 7609 7909 8225 8462 8361 7901 7228 6466 6199 6072 5844 5316 5277 5882 6827 7820 8323 8596 8705 8722 8667
5426 5402 5409 5474 5543 5580 5471 5356 5223 5104 4825 4609 4380 4160 3834 3518 3302 3213 3301 3346 3426 3594 3814 3900 3923 3935 4128 4366 4540 4593 4583 4599 4616 4595 4549 4535 4518 4498 4510 4467 4418 4353 4307 4212 4097 3957 3851 3783 3746 3784 3866 3944 4013 4102 4145 4168 4210 4259 4221 4054 3816 3474 3182 2949 2878 2929 3211 3668 4281 4944 5543 5952 6265 6625 7079 7521 7829 7912 7768 7702 7768 7973 8225 8429 8461 8262 7633 6992 6441 6204 6249 6023 5712 5435 6095 6860 7602 8063 8455 8646 8709 8651 8264
5412 5434 5511 5535 5502 5420 5303 5167 4984 4746 4507 4227 3950 3667 3226 2975 2905 3021 3136 3248 3398 3502 3536 3561 3647 3851 4031 4150 4210 4232 4246 4252 4321 4348 4370 4376 4370 4369 4335 4275 4218 4151 4061 3996 3907 3831 3774 3765 3777 3893 4007 4118 4193 4225 4207 4168 4135 4111 3995 3859 3642 3406 3163 2962 2955 3134 3663 4373 5082 5744 6121 6479 6847 7238 7626 7899 8024 7941 7903 8046 8295 8557 8540 8439 8137 7488 6724 6327 6234 6405 6288 6110 6071 6436 7077 7529 7949 8428 8648 8695 8571 8231 7524
5471 5441 5493 5499 5451 5340 5166 4960 4702 4453 4199 3876 3498 3071 2769 2729 2812 2983 3130 3257 3324 3351 3370 3467 3617 3765 3876 3993 4071 4181 4266 4343 4380 4441 4500 4531 4542 4522 4451 4412 4347 4277 4199 4107 4018 3987 3970 4018 4081 4227 4323 4398 4410 4365 4268 4143 4048 3934 3830 3701 3544 3362 3135 3065 3216 3623 4394 5203 5909 6324 6646 7036 7435 7811 8070 8149 8117 8068 8188 8394 8541 8540 8337 8032 7571 6847 6400 6362 6501 6546 6449 6638 7019 7416 7587 7921 8303 8598 8601 8440 8077 7543 6995
5521 5498 5541 5531 5449 5317 5129 4888 4585 4226 3828 3404 2984 2680 2720 2836 2976 3047 3074 3163 3240 3223 3287 3418 3599 3784 3954 4117 4260 4412 4505 4565 4632 4651 4698 4777 4802 4769 4746 4720 4678 4622 4531 4423 4354 4303 4344 4440 4551 4692 4740 4699 4606 4449 4251 4041 3911 3785 3713 3591 3455 3262 3182 3323 3724 4414 5324 6032 6543 6856 7254 7662 8010 8245 8267 8271 8268 8334 8504 8591 8545 8295 7664 7219 6859 6502 6391 6504 6702 6839 7098 7368 7639 7838 8080 8316 8491 8538 8310 7979 7556 7134 6912